weather.gov     
National Weather Service

Regional Weather Roundup
NWS Homepage
This page is being discontinued on March 12, 2014.
The same data is available at this site. Please update your bookmarks.
Thank you, and we apologize for the inconvenience.
Please send an email to SR-SRH.Webmaster@noaa.gov with any concerns.


Current Version
Previous Version:    01  02  03  04  05  06  07  08  09  10  11  12  13  14  15  16  17  18  19  20  21  22  23  24  25  26  27  28  29  30  
   31  32  33  34  35  36  37  38  39  40  41  42  43  44  45  46  47  48  49  50  51  52  53  54  55  56  57  58  59  60  
[Printable]
073
ASHW40 PHFO 230643
RWRHI

WEATHER ROUNDUP FOR HAWAII
NATIONAL WEATHER SERVICE HONOLULU HI
800 PM HST WED OCT 22 2014

THIS IS AN AUTOMATED REPORT THAT HAS NOT BEEN QUALITY CONTROLLED.

NOTE..."FAIR" INDICATES FEW OR NO CLOUDS BELOW 12,000 FEET WITH NO
SIGNIFICANT WEATHER AND/OR OBSTRUCTIONS TO VISIBILITY.

* - THESE SITES REPORT LIMITED FIELDS

HIZ001>004-230700-
KAUAI-NIIHAU-

CITY           SKY/WX    TMP DP  RH WIND       PRES   REMARKS
LIHUE APT      PTCLDY    78  72  81 E7        30.02R
PORT ALLEN*      N/A     77 N/A N/A NE6         N/A
POIPU*           N/A     77 N/A N/A NE5         N/A
PRINCEVILLE*     N/A     75 N/A N/A MISG        N/A
KOKOLE POINT*  NOT AVBL
MOLOAA DAIRY*  NOT AVBL
WAIMEA HTS*      N/A     73  72  94 N1          N/A
PUU OPAE*        N/A     70  68  94 CALM        N/A
PUU LUA*       NOT AVBL
MAKAHA RIDGE*  NOT AVBL
$$

HIZ005>011-230700-
OAHU-

CITY           SKY/WX    TMP DP  RH WIND       PRES   REMARKS
HONOLULU       LGT RAIN  75  73  93 N5        30.02R
KALAELOA       CLOUDY    76  73  91 VRB3      30.03R
KANEOHE MCB    PTCLDY    78  74  87 SE3       30.03R
WHEELER FIELD  FAIR      74  72  94 CALM      30.04
BELLOWS*         N/A    N/A N/A N/A E10         N/A
KAHUKU*          N/A    N/A N/A N/A SE2         N/A
WHEELER*       NOT AVBL
WAIANAE HARBOR NOT AVBL
DILLINGHAM*      N/A     75  73  94 E1          N/A
KAHUKU TRN*      N/A     73  72  94 SE3G12      N/A
KAWAILOA*        N/A     72  70  94 SE2         N/A
KII*             N/A     75  73  94 SE6G16      N/A
MAKUA RANGE*     N/A     75  72  88 E6          N/A
OAHU FOREST NW   N/A     70  70 100 NW8G21      N/A
SCHOFIELD BRK*   N/A     75  75 100 MISG        N/A
SCHOFIELD S*   NOT AVBL
WAIANAE VLY*     N/A     73  72  94 N3          N/A
KUAOKALA*        N/A     73  68  83 CALM        N/A
HONOULIUULI*   NOT AVBL
MOKUOLOE IS*   NOT AVBL
PALEHUA*         N/A     81  73  78 CALM        N/A
WAIAWA PHB*    NOT AVBL
$$

HIZ012>013-230700-
MOLOKAI-

CITY           SKY/WX    TMP DP  RH WIND       PRES   REMARKS
MOLOKAI AIRPT  PTCLDY    73  73 100 W6        30.04R
KALAUPAPA      NOT AVBL
MAKAPULAPAI*     N/A     79  72  78 E14G21      N/A
MOLOKAI 1*       N/A     68  68 100 SE2         N/A
PUU ALII*        N/A     63  63  99 SE2G8       N/A
$$

HIZ016-230700-
KAHOOLAWE-

CITY           SKY/WX    TMP DP  RH WIND       PRES   REMARKS
KAHOOLAWE*       N/A     72 N/A N/A E12G17      N/A
HAKIOAWA*      NOT AVBL
HONOKANAIA*      N/A     76  73  89 N6        30.03R
KANELOA*         N/A     73  72  94 NE8G15    29.24R
KEALIALALO*    NOT AVBL
LUA MAKIKA*    NOT AVBL
$$

HIZ014>015-230700-
LANAI-

CITY           SKY/WX    TMP DP  RH WIND       PRES   REMARKS
LANAI CITY     NOT AVBL
LANAI 1*         N/A     70  70 100 E3          N/A
$$

HIZ017>028-230700-
MAUI-

CITY           SKY/WX    TMP DP  RH WIND       PRES   REMARKS
KAHULUI        PTCLDY    75  72  90 S5        30.02R
KAPALUA-W MAUI NOT AVBL
HANA AIRPORT   CLOUDY    75  72  88 E9        30.07R
HANA*            N/A     77 N/A N/A S3          N/A
HALEAKALA SUMM   N/A     46  46 100 NE17        N/A
MAALAEA BAY*   NOT AVBL
HALEAKALA*     NOT AVBL
KAUPO GAP*       N/A     63  63 100 CALM        N/A
KULA 1*          N/A     56  55  97 NE3         N/A
$$

HIZ023>026-230700-
BIG ISLAND OF HAWAII COAST AND LOWER SLOPES-

CITY           SKY/WX    TMP DP  RH WIND       PRES   REMARKS
KAILUA KONA    MOCLDY    81  72  74 SE8       29.98R
HILO           CLOUDY    76  68  76 SW6       30.04R
HONOKAA*       NOT AVBL
KAWAIHAE MWT*    N/A     84 N/A N/A VRB8G14     N/A
KAWAIHAE*        N/A     82 N/A N/A NW7         N/A
SOUTH POINT*     N/A     73 N/A N/A NE12        N/A
UPOLU AIRPORT*   N/A    N/A N/A N/A E12         N/A
KAMUELA*       CLEAR     66  63  88 NE12      30.14R
HAKALAU*         N/A     57  56  98 CALM        N/A
KALOKO-HONOKO*   N/A     79  72  78 E3        29.98R
PALI 2*          N/A     66 -11   4 N8          N/A
KEALAKOMO*       N/A     81  68  65 NE9G16      N/A
KAUPULEHU*       N/A     73  64  73 E6          N/A
KAPAPALA*      NOT AVBL
LOWER KAHUKU*  NOT AVBL
PUHE CS*       NOT AVBL
PUHO CS*         N/A     77  69  76 E2          N/A
PTA KEAMUKU*     N/A     66  64  94 CALM        N/A
WAIKOLOA*        N/A     75  64  69 E12G17      N/A
$$

HIZ027>028-230700-
BIG ISLAND OF HAWAII INTERIOR AND SUMMMITS-

CITY           SKY/WX    TMP DP  RH WIND       PRES   REMARKS
BRADSHAW FIELD MOCLDY    59  59 100 W2        30.40R FOG
MK VISITOR CEN NOT AVBL
MAUNA KEA*       N/A     36  25  64 CALM        N/A
MAUNA LOA*       N/A     45  37  76 MISG        N/A
MAUNA LOA 1*   NOT AVBL
PTA KIPUKA*      N/A     61  59  94 E3          N/A
PTA RANGE 17*    N/A     61  59  94 W3          N/A
PTA WEST*        N/A    N/A N/A N/A S5          N/A
NENE CABIN*      N/A     55  55 100 E3          N/A
AHUMOA*          N/A     58  58 100 E5          N/A
PTA PORTABLE*  NOT AVBL
PUU MALI*      NOT AVBL
$$

HIC003-230700-
NORTHWEST ISLANDS-

CITY           SKY/WX    TMP DP  RH WIND       PRES   REMARKS
MIDWAY ISLAND  CLEAR     81  77  89 S7        29.93R
MIDWAY NOS*    NOT AVBL
FRENCH FRIGATE NOT AVBL
$$

PHZ110>124-180-230700-
BUOY REPORTS

STATION/POSITION TIME  TEMP    WIND        PRES    WAVE   SWELL
                       AIR SEA DIR/SP/G            HT/PER HT/DIR
                 (UTC) (F)     (DEG/KT/KT) (MB)    (FT/S) (FT/D)
BUOY 51001       NOT AVBL
BUOY 51101       NOT AVBL
BUOY 51100       0600   79 80   90/ 14/ 16 1017.8R
BUOY 51003       0600   81 82   80/ 12/ 14 1015.6R   5/11   5
BUOY 51004       0525   79 81   60/ 14/ 16 1015.5R   7/11   7/ 10
BARBERS PT BUOY  NOT AVBL
WAIMEA BAY BUOY  0600      81                N/A     4/10   2/360
KAILUA BAY BUOY  0600      82                N/A     5/10   2/ 10
LANAI BUOY       0600      82                N/A     3/13   2/200
BARBERS PT 2     0600      82                N/A     3/13   2/200
PAUWELA MAUI     0600      81                N/A     5/11   2/360
HILO             0600      81                N/A     6/ 8   2/350
KANEOHE BAY BUOY NOT AVBL
HANALEI KAUAI    NOT AVBL
KAHULUI HARBOR   0600   76 81   80/  2/  5 1016.6R
HONOLULU HARBOR  0600   77      30/  1/  2 1017.0R
KILO NALU        NOT AVBL
HILO HARBOR      0600   75     220/  3/  6 1016.6R
MOKUOLOE         0600   76     250/  2/  3   N/A
NAWILIWILI       0600      82                N/A
WHOTS BUOY       NOT AVBL
BUOY 51028       NOT AVBL
$$

......................KEY........................................
  SKY/WX - SKY CONDITIONS/PRESENT WEATHER
  TMP    - TEMPERATURE IN FAHRENHEIT
  DWPT   - DEWPOINT IN FAHRENHEIT
  RH     - RELATIVE HUMIDITY IN PERCENT
  WIND   - DIRECTION AND SPEED /MPH FOR ISLANDS...KTS FOR BUOYS/
  PRES   - MEAN SEA LEVEL PRESSURE IN INCHES OF HG
  VSB    - VISIBILITY IN MILES
  HX     - HEAT INDEX
  WCI    - WIND CHILL INDEX
  VRB    - VARIABLE WIND DIRECTION
  N/A    - NOT AVAILABLE




U.S. Dept. of Commerce
NOAA National Weather Service
1325 East West Highway
Silver Spring, MD 20910
E-mail: w-nws.webmaster@noaa.gov
Page last modified: May 16, 2007
NATIONAL WEATHER SERVICE: for Safety, for Work, for Fun - FOR LIFE